Regional Weather Roundup
Issued by NWS Newport/Morehead, NC

Current Version | Previous Version | Graphics & Text | Print | Product List | Glossary Off
Versions: 1 2 3 4 5 6 7 8 9 10 11 12 13 14 15 16 17 18 19 20 21 22 23 24 25 26 27 28 29 30 31 32 33 34 35 36 37 38 39 40 41 42 43 44 45 46 47 48 49 50

000
ASUS42 KMHX 272110
RWRMHX
WEATHER ROUNDUP FOR EASTERN NORTH CAROLINA
NATIONAL WEATHER SERVICE NEWPORT/MOREHEAD CITY NC
400 PM EST TUE JAN 27 2015

NOTE: "FAIR" INDICATES FEW OR NO CLOUDS BELOW 12,000 FEET
WITH NO SIGNIFICANT WEATHER AND/OR OBSTRUCTIONS TO VISIBILITY

NCZ015>017-031-032-045>047-102-103-272200-
NORTH COAST

CITY           SKY/WX    TMP DP  RH WIND       PRES   REMARKS
EDENTON        CLOUDY    35  30  82 N10       29.80R
ELIZABETH CITY CLOUDY    35  28  75 NW12      29.78R
KITTY HAWK     CLOUDY    35  30  83 NW7       29.75R
MANTEO         CLOUDY    36  28  75 NW7       29.77R

$$

NCZ045>047-081-094-103-104-272200-
CENTRAL COAST

CITY           SKY/WX    TMP DP  RH WIND       PRES   REMARKS
FRISCO         CLOUDY    35  31  85 NW9G18    29.76R
SWANQUARTER    NOT AVBL

$$

NCZ095-097-098-100-101-272200-
SOUTHERN COAST

CITY           SKY/WX    TMP DP  RH WIND       PRES   REMARKS
BEAUFORT       CLOUDY    38  29  70 NW15      29.80R
CEDAR ISLAND   NOT AVBL
JACKSONVILLE   CLOUDY    39  29  67 NW13G21   29.82R
PINEY ISLAND     N/A    N/A N/A N/A MISG      29.79R
WILMINGTON     CLOUDY    42  28  57 NW14      29.82R


$$

NCZ011>013-027>030-043-044-078>080-089-090>093-098-272200-
COASTAL PLAIN

CITY           SKY/WX    TMP DP  RH WIND       PRES   REMARKS
AHOSKIE        CLOUDY    34  28  77 NW6       29.82R
CLINTON        MOSUNNY   42  27  54 NW6       29.83R
ELIZABETHTOWN  MOSUNNY   44  24  46 NW8       29.83R
GOLDSBORO      CLOUDY    40  34  79 N5        29.81R
GREENVILLE     PTSUNNY   39  28  65 N10G18    29.85R
HAVELOCK       CLOUDY    39  27  62 NW16      29.81R
KENANSVILLE    PTSUNNY   41  28  58 W9        29.83R
KINSTON        PTSUNNY   39  28  65 NW12G17   29.83R
NEW BERN       CLOUDY    40  27  59 NW13      29.82R
RICHLANDS      CLOUDY    39  27  60 NW5       29.83R
ROCKY MOUNT    SUNNY     40  26  57 N8        29.82R
WASHINGTON     CLOUDY    36  29  77 N8        29.81R
WHITEVILLE     SUNNY     45  23  41 W5        29.83R

$$

AMZ130-135-150-152-154-156-158-170-250-252-270-ANZ085-086-088-633-658-670-272200-
MARINE OBSERVATIONS

STATION/POSITION TIME  TEMP    WIND        PRES    WAVE   SWELL
                       AIR SEA DIR/SP/G            HT/PER HT/PER
                 (UTC) (F)     (DEG/KT/KT) (MB)    (FT/S) (FT/S)
CHESAPEAKE LIGHT 2000   35     330/ 22/ 24 1007.5
64 E VA BEACH    2100   38 51  330/ 23/ 29 1005.3   15/13  13/13
DUCK             2100   35 43  330/ 16/ 20 1006.7
2 E DUCK         2100      44                N/A     9/13   7/13
10 NE DUCK       2100      46                N/A    10/13   7/13
OREGON INLET     2100   35 45  320/  9/ 14 1007.6
13E OREGON INLT  2100      47                N/A    11/14   8/14
HATTERAS CG      2100   36 48  320/ 17/ 19 1008.1
DIAMOND BUOY     2100   39 69  330/ 17/ 23 1006.9   11/14  10/14
17 S OCRACOKE    NOT AVBL
CAPE LOOKOUT     2000   37     340/ 13/ 15 1008.1
BEAUFORT LAB     2100   38 49  330/  9/ 13 1007.9
27 SE WRIGHTSVLE NOT AVBL
5 SE WRIGHTSVLE  2000   42 53  330/ 12/ 16 1009.0
225 S CAPE HAT   2038   58 71  280/ 25/ 33 1004.6   13/ 8   8/10
41 SE CHARLESTON 2100   50 68  290/ 19/ 25 1009.9    4/ 4   2/ 7

$$


USA.gov is the U.S. government's official web portal to all federal, state and local government web resources and services.